• In Uzbekistan
  • List of Countries
  • For 7 days
  • Water Temperature
  • Satellite Maps
  • Weather Map
  • Weather Widgets
  • user-avatar
    Login

    Hourly Weather Durres

    Today, 25 September, Tuesday

    Time Temperature Precipitation Wind Pressure Humidity
    00:00 +20°C° 0.1 mm 8 mps 763 mmHg 60%
    01:00 +20°C° 0.1 mm 8 mps 764 mmHg 56%
    02:00 +18°C° 0 mm 8 mps 764 mmHg 55%
    03:00 +17°C° 0 mm 9 mps 764 mmHg 54%
    04:00 +16°C° 0 mm 9 mps 764 mmHg 53%
    05:00 +16°C° 0 mm 9 mps 765 mmHg 51%
    06:00 +16°C° 0 mm 9 mps 765 mmHg 49%
    07:00 +16°C° 0 mm 9 mps 765 mmHg 47%
    08:00 +18°C° 0 mm 9 mps 765 mmHg 42%
    09:00 +21°C° 0 mm 9 mps 766 mmHg 36%
    10:00 +23°C° 0 mm 8 mps 766 mmHg 30%
    11:00 +24°C° 0 mm 8 mps 766 mmHg 27%
    12:00 +26°C° 0 mm 8 mps 766 mmHg 24%
    13:00 +27°C° 0 mm 8 mps 765 mmHg 21%
    14:00 +27°C° 0 mm 8 mps 765 mmHg 21%
    15:00 +26°C° 0 mm 8 mps 765 mmHg 22%
    16:00 +26°C° 0 mm 8 mps 765 mmHg 22%
    17:00 +23°C° 0 mm 8 mps 766 mmHg 25%
    18:00 +20°C° 0 mm 8 mps 766 mmHg 28%
    19:00 +17°C° 0 mm 9 mps 767 mmHg 31%
    20:00 +16°C° 0 mm 9 mps 767 mmHg 32%
    21:00 +16°C° 0 mm 9 mps 768 mmHg 34%
    22:00 +15°C° 0 mm 9 mps 768 mmHg 36%
    23:00 +13°C° 0 mm 9 mps 768 mmHg 38%

    Tomorrow, 26 September, Wednesday

    Time Temperature Precipitation Wind Pressure Humidity
    00:00 +12°C° 0 mm 9 mps 769 mmHg 40%
    01:00 +12°C° 0 mm 9 mps 769 mmHg 42%
    02:00 +11°C° 0 mm 9 mps 769 mmHg 43%
    03:00 +11°C° 0 mm 9 mps 769 mmHg 44%
    04:00 +10°C° 0 mm 9 mps 769 mmHg 45%
    05:00 +11°C° 0 mm 9 mps 769 mmHg 43%
    06:00 +12°C° 0 mm 9 mps 770 mmHg 40%
    07:00 +12°C° 0 mm 9 mps 770 mmHg 38%
    08:00 +15°C° 0 mm 9 mps 770 mmHg 33%
    09:00 +17°C° 0 mm 9 mps 770 mmHg 27%
    10:00 +19°C° 0 mm 9 mps 770 mmHg 22%
    11:00 +21°C° 0 mm 9 mps 770 mmHg 20%
    12:00 +22°C° 0 mm 8 mps 770 mmHg 19%
    13:00 +23°C° 0 mm 8 mps 769 mmHg 17%
    14:00 +22°C° 0 mm 8 mps 769 mmHg 18%
    15:00 +22°C° 0 mm 8 mps 769 mmHg 18%
    16:00 +21°C° 0 mm 8 mps 769 mmHg 19%
    17:00 +18°C° 0 mm 8 mps 770 mmHg 22%
    18:00 +16°C° 0 mm 8 mps 770 mmHg 25%
    19:00 +13°C° 0 mm 8 mps 771 mmHg 28%
    20:00 +12°C° 0 mm 8 mps 771 mmHg 30%
    21:00 +11°C° 0 mm 7 mps 771 mmHg 32%
    22:00 +10°C° 0 mm 7 mps 772 mmHg 34%
    23:00 +10°C° 0 mm 7 mps 772 mmHg 36%

    Day after tomorrow, 27 September, Thursday

    Time Temperature Precipitation Wind Pressure Humidity
    00:00 +9°C° 0 mm 7 mps 771 mmHg 37%
    01:00 +9°C° 0 mm 7 mps 771 mmHg 39%
    02:00 +8°C° 0 mm 7 mps 771 mmHg 40%
    03:00 +8°C° 0 mm 6 mps 771 mmHg 41%
    04:00 +8°C° 0 mm 6 mps 771 mmHg 41%
    05:00 +9°C° 0 mm 6 mps 770 mmHg 40%
    06:00 +10°C° 0 mm 6 mps 770 mmHg 38%
    07:00 +12°C° 0 mm 5 mps 770 mmHg 36%
    08:00 +14°C° 0 mm 5 mps 770 mmHg 31%
    09:00 +17°C° 0 mm 5 mps 769 mmHg 25%
    10:00 +20°C° 0 mm 5 mps 769 mmHg 20%
    11:00 +22°C° 0 mm 6 mps 768 mmHg 18%
    12:00 +23°C° 0 mm 6 mps 767 mmHg 16%
    13:00 +24°C° 0 mm 6 mps 767 mmHg 14%
    14:00 +24°C° 0 mm 7 mps 766 mmHg 15%
    15:00 +24°C° 0 mm 7 mps 765 mmHg 15%
    16:00 +24°C° 0 mm 7 mps 765 mmHg 16%
    17:00 +21°C° 0 mm 7 mps 765 mmHg 20%
    18:00 +18°C° 0 mm 7 mps 765 mmHg 23%
    19:00 +15°C° 0 mm 7 mps 765 mmHg 27%
    20:00 +14°C° 0 mm 7 mps 765 mmHg 30%
    21:00 +12°C° 0 mm 8 mps 765 mmHg 32%
    22:00 +12°C° 0 mm 8 mps 765 mmHg 35%
    23:00 +12°C° 0 mm 8 mps 764 mmHg 34%

    28 September, Friday

    Time Temperature Precipitation Wind Pressure Humidity
    00:00 +12°C° 0 mm 8 mps 764 mmHg 34%
    01:00 +14°C° 0 mm 7 mps 764 mmHg 33%
    02:00 +14°C° 0 mm 7 mps 763 mmHg 33%
    03:00 +12°C° 0 mm 7 mps 763 mmHg 33%
    04:00 +12°C° 0 mm 7 mps 763 mmHg 33%
    05:00 +14°C° 0 mm 7 mps 762 mmHg 32%
    06:00 +15°C° 0 mm 6 mps 762 mmHg 31%
    07:00 +15°C° 0 mm 6 mps 762 mmHg 30%
    08:00 +17°C° 0 mm 6 mps 762 mmHg 29%
    09:00 +20°C° 0 mm 6 mps 762 mmHg 27%
    10:00 +23°C° 0 mm 6 mps 761 mmHg 26%
    11:00 +25°C° 0 mm 5 mps 761 mmHg 27%
    12:00 +26°C° 0 mm 5 mps 760 mmHg 28%
    13:00 +28°C° 0 mm 4 mps 760 mmHg 28%
    14:00 +27°C° 0 mm 5 mps 760 mmHg 31%
    15:00 +26°C° 0 mm 5 mps 760 mmHg 33%
    16:00 +24°C° 0 mm 6 mps 759 mmHg 36%
    17:00 +22°C° 0 mm 5 mps 760 mmHg 40%
    18:00 +21°C° 0 mm 5 mps 760 mmHg 45%
    19:00 +19°C° 0 mm 5 mps 760 mmHg 49%
    20:00 +17°C° 0 mm 5 mps 760 mmHg 51%
    21:00 +18°C° 0 mm 4 mps 760 mmHg 53%
    22:00 +17°C° 0 mm 4 mps 760 mmHg 55%
    23:00 +16°C° 0 mm 3 mps 760 mmHg 55%

    29 September, Saturday

    Time Temperature Precipitation Wind Pressure Humidity
    00:00 +16°C° 0 mm 3 mps 760 mmHg 55%
    01:00 +16°C° 0 mm 3 mps 760 mmHg 55%
    02:00 +16°C° 0 mm 3 mps 760 mmHg 54%
    03:00 +15°C° 0 mm 2 mps 760 mmHg 54%
    04:00 +15°C° 0 mm 2 mps 760 mmHg 54%
    05:00 +16°C° 0 mm 2 mps 760 mmHg 51%
    06:00 +17°C° 0 mm 2 mps 760 mmHg 49%
    07:00 +18°C° 0 mm 2 mps 760 mmHg 47%
    08:00 +20°C° 0 mm 2 mps 760 mmHg 41%
    09:00 +24°C° 0 mm 2 mps 760 mmHg 36%
    10:00 +26°C° 0 mm 1 mps 760 mmHg 30%
    11:00 +27°C° 0 mm 2 mps 760 mmHg 29%
    12:00 +27°C° 0 mm 2 mps 760 mmHg 27%
    13:00 +28°C° 0 mm 3 mps 760 mmHg 26%
    14:00 +27°C° 0 mm 4 mps 760 mmHg 28%
    15:00 +27°C° 0 mm 4 mps 760 mmHg 29%
    16:00 +26°C° 0 mm 4 mps 760 mmHg 31%
    17:00 +23°C° 0 mm 4 mps 760 mmHg 39%
    18:00 +21°C° 0 mm 4 mps 761 mmHg 48%
    19:00 +19°C° 0 mm 3 mps 761 mmHg 56%
    20:00 +18°C° 0 mm 3 mps 761 mmHg 54%
    21:00 +18°C° 0 mm 3 mps 762 mmHg 51%
    22:00 +18°C° 0 mm 3 mps 762 mmHg 49%
    23:00 +18°C° 0 mm 3 mps 762 mmHg 48%

    30 September, Sunday

    Time Temperature Precipitation Wind Pressure Humidity
    00:00 +17°C° 0 mm 3 mps 762 mmHg 47%
    01:00 +17°C° 0 mm 3 mps 762 mmHg 46%
    02:00 +17°C° 0 mm 3 mps 762 mmHg 47%
    03:00 +17°C° 0 mm 3 mps 762 mmHg 47%
    04:00 +17°C° 0 mm 3 mps 762 mmHg 47%
    05:00 +17°C° 0 mm 3 mps 762 mmHg 47%
    06:00 +18°C° 0 mm 3 mps 763 mmHg 46%
    07:00 +19°C° 0 mm 3 mps 763 mmHg 45%
    08:00 +21°C° 0 mm 3 mps 763 mmHg 40%
    09:00 +25°C° 0 mm 2 mps 763 mmHg 35%
    10:00 +27°C° 0 mm 2 mps 763 mmHg 30%
    11:00 +28°C° 0 mm 2 mps 763 mmHg 29%
    12:00 +28°C° 0 mm 2 mps 762 mmHg 28%
    13:00 +29°C° 0 mm 2 mps 762 mmHg 27%
    14:00 +28°C° 0 mm 2 mps 762 mmHg 29%
    15:00 +27°C° 0 mm 2 mps 762 mmHg 31%
    16:00 +27°C° 0 mm 2 mps 762 mmHg 34%
    17:00 +25°C° 0 mm 2 mps 762 mmHg 39%
    18:00 +23°C° 0 mm 1 mps 762 mmHg 45%
    19:00 +19°C° 0 mm 0 mps 762 mmHg 51%
    20:00 +21°C° 0 mm 1 mps 763 mmHg 51%
    21:00 +20°C° 0 mm 1 mps 763 mmHg 52%
    22:00 +20°C° 0 mm 1 mps 763 mmHg 52%
    23:00 +20°C° 0 mm 1 mps 763 mmHg 52%
    Show more